Temp
-10 -10 -10 -11 -11 -12 -13 -13 -13 -13 -13 -12 -13 -13 -13 -15 -17 -17 -18 -18 -19 -19 -19 -19 -20 -20 -19 -20 -20 -19 -18 -17 -16 -16 -15 -14 -14 -14 -14 -13 -14 -14 -14 -13
-11 -11 -10 -11 -11 -12 -12 -13 -13 -13 -13 -13 -13 -13 -13 -15 -17 -18 -18 -18 -19 -19 -19 -19 -20 -20 -20 -20 -20 -19 -18 -18 -16 -15 -15 -14 -15 -14 -13 -13 -14 -14 -13 -13
-11 -10 -10 -11 -11 -12 -13 -14 -14 -14 -14 -13 -13 -13 -14 -14 -17 -18 -18 -18 -19 -19 -19 -19 -20 -20 -20 -20 -20 -19 -18 -18 -16 -14 -15 -15 -14 -14 -13 -14 -14 -14 -13 -13
-11 -10 -10 -11 -11 -12 -12 -13 -14 -14 -14 -14 -13 -13 -14 -14 -17 -19 -18 -19 -19 -19 -19 -19 -19 -20 -19 -20 -20 -18 -18 -18 -17 -15 -15 -15 -15 -15 -14 -14 -14 -14 -13 -13
-11 -11 -10 -11 -11 -12 -12 -13 -14 -14 -14 -14 -13 -14 -14 -14 -16 -19 -19 -18 -18 -18 -19 -19 -19 -19 -19 -19 -19 -19 -17 -17 -17 -15 -15 -15 -14 -15 -15 -14 -13 -14 -13 -14
-12 -10 -10 -11 -11 -12 -12 -13 -13 -14 -14 -14 -14 -14 -14 -14 -16 -19 -19 -19 -18 -18 -18 -19 -18 -18 -18 -18 -18 -18 -17 -17 -17 -16 -16 -15 -16 -15 -14 -14 -13 -13 -13 -14
-12 -11 -10 -10 -11 -11 -12 -13 -13 -13 -14 -14 -14 -14 -15 -14 -15 -17 -19 -19 -19 -18 -18 -18 -18 -18 -17 -17 -17 -18 -17 -17 -16 -16 -16 -16 -16 -14 -14 -13 -13 -13 -13 -13
-13 -12 -11 -11 -11 -11 -12 -13 -13 -14 -14 -15 -14 -14 -15 -15 -14 -16 -18 -19 -19 -18 -18 -18 -18 -17 -17 -17 -17 -17 -17 -17 -17 -16 -15 -15 -15 -14 -14 -13 -13 -13 -14 -14
-12 -12 -11 -11 -11 -11 -12 -13 -13 -14 -14 -14 -15 -14 -14 -14 -14 -15 -15 -17 -18 -19 -18 -18 -18 -17 -17 -17 -17 -16 -16 -16 -17 -17 -16 -15 -14 -14 -14 -14 -14 -13 -13 -14
-13 -12 -12 -11 -11 -11 -12 -12 -13 -14 -14 -14 -14 -14 -15 -15 -15 -14 -15 -15 -16 -18 -19 -18 -18 -18 -17 -17 -17 -17 -16 -16 -16 -16 -17 -16 -15 -14 -14 -14 -14 -14 -14 -13
-13 -13 -13 -11 -11 -11 -12 -12 -13 -14 -14 -15 -14 -15 -15 -15 -15 -15 -14 -15 -16 -16 -17 -18 -18 -18 -18 -17 -17 -17 -17 -16 -16 -16 -16 -16 -16 -15 -14 -15 -14 -14 -14 -14
-13 -13 -13 -12 -11 -11 -12 -12 -13 -13 -14 -15 -15 -15 -15 -15 -15 -15 -14 -14 -16 -16 -16 -17 -17 -17 -18 -17 -17 -16 -16 -16 -16 -16 -16 -16 -15 -16 -16 -16 -16 -15 -16 -15
-13 -13 -13 -13 -11 -11 -12 -12 -13 -13 -14 -15 -15 -14 -15 -15 -15 -15 -15 -14 -15 -16 -16 -16 -16 -17 -17 -17 -17 -17 -16 -16 -16 -16 -16 -16 -16 -16 -16 -16 -16 -16 -16 -16
-13 -13 -13 -12 -12 -12 -12 -12 -13 -13 -14 -14 -15 -15 -15 -15 -15 -15 -15 -15 -15 -15 -16 -16 -16 -16 -16 -16 -17 -17 -17 -16 -16 -16 -16 -16 -16 -16 -16 -16 -16 -16 -16 -16
-14 -14 -13 -13 -12 -12 -12 -12 -12 -13 -14 -14 -14 -15 -15 -15 -15 -15 -15 -15 -15 -15 -15 -15 -15 -16 -16 -16 -16 -17 -17 -17 -16 -16 -16 -16 -16 -16 -16 -16 -16 -16 -16 -16
-14 -13 -13 -13 -12 -12 -12 -12 -12 -13 -13 -14 -14 -14 -15 -15 -15 -15 -15 -15 -15 -15 -15 -15 -15 -15 -16 -16 -17 -17 -17 -17 -17 -16 -16 -16 -16 -16 -16 -16 -16 -16 -16 -16
-14 -14 -13 -13 -12 -12 -12 -12 -12 -12 -13 -14 -14 -14 -14 -15 -15 -15 -15 -15 -15 -15 -15 -15 -15 -15 -15 -15 -16 -17 -17 -17 -17 -17 -17 -16 -16 -16 -16 -16 -16 -15 -16 -16
-14 -14 -14 -13 -13 -12 -13 -13 -12 -12 -13 -13 -14 -14 -14 -15 -15 -15 -16 -16 -16 -16 -15 -15 -15 -15 -15 -15 -15 -16 -16 -17 -17 -17 -17 -17 -17 -16 -16 -16 -16 -16 -16 -16
-14 -14 -14 -13 -13 -13 -13 -13 -13 -13 -13 -13 -13 -14 -14 -14 -15 -15 -15 -16 -16 -16 -16 -16 -16 -16 -16 -15 -16 -15 -16 -16 -17 -17 -17 -17 -17 -17 -17 -17 -17 -17 -17 -17
-14 -15 -14 -14 -13 -13 -14 -13 -13 -13 -13 -13 -13 -14 -14 -14 -15 -15 -15 -15 -16 -16 -16 -16 -16 -16 -16 -16 -16 -16 -16 -16 -16 -16 -17 -17 -17 -17 -17 -17 -17 -17 -17 -17
-15 -15 -14 -14 -14 -13 -14 -14 -14 -13 -13 -13 -13 -13 -14 -14 -15 -15 -15 -15 -15 -16 -16 -16 -16 -16 -16 -16 -16 -16 -16 -16 -16 -16 -17 -17 -17 -18 -17 -18 -18 -18 -18 -18
-15 -15 -14 -14 -13 -14 -15 -15 -14 -14 -14 -14 -14 -13 -14 -14 -14 -15 -15 -15 -15 -16 -16 -16 -16 -16 -17 -17 -16 -16 -16 -16 -17 -16 -17 -17 -17 -17 -17 -18 -18 -18 -18 -18
-14 -15 -14 -14 -14 -15 -14 -15 -15 -14 -14 -14 -14 -14 -14 -14 -14 -15 -15 -15 -15 -15 -16 -16 -16 -16 -17 -17 -17 -17 -17 -17 -17 -17 -17 -17 -17 -17 -17 -17 -18 -18 -18 -18
-14 -15 -14 -14 -15 -15 -15 -15 -15 -15 -15 -14 -14 -14 -14 -14 -14 -15 -15 -15 -15 -15 -16 -16 -16 -17 -17 -17 -17 -18 -17 -17 -17 -17 -17 -17 -17 -17 -17 -17 -17 -18 -18 -18
-15 -15 -14 -14 -15 -15 -16 -16 -15 -15 -14 -14 -14 -15 -15 -14 -14 -14 -14 -15 -16 -16 -16 -16 -16 -17 -17 -17 -17 -18 -18 -18 -18 -18 -18 -17 -18 -17 -18 -18 -18 -18 -18 -18
-15 -15 -15 -14 -16 -15 -15 -16 -15 -15 -14 -15 -15 -15 -15 -15 -15 -15 -14 -15 -15 -15 -16 -16 -16 -16 -16 -17 -17 -18 -18 -18 -17 -18 -18 -18 -18 -18 -18 -18 -18 -18 -18 -18
Height
5819 5818 5815 5814 5810 5807 5802 5796 5791 5785 5780 5772 5762 5754 5744 5732 5723 5717 5711 5704 5698 5693 5688 5684 5680 5679 5679 5680 5681 5683 5684 5687 5692 5699 5711 5714 5718 5725 5730 5737 5746 5752 5758 5764
5817 5814 5814 5812 5808 5805 5800 5794 5789 5784 5779 5771 5762 5753 5742 5731 5721 5716 5710 5704 5697 5692 5687 5684 5680 5679 5679 5678 5678 5681 5680 5681 5687 5694 5706 5708 5711 5716 5723 5731 5741 5747 5753 5758
5813 5812 5811 5809 5806 5804 5798 5793 5788 5783 5777 5769 5762 5752 5741 5731 5720 5714 5709 5704 5698 5692 5687 5683 5680 5678 5677 5677 5676 5678 5678 5680 5682 5690 5700 5704 5709 5714 5718 5726 5735 5741 5747 5752
5811 5808 5808 5806 5804 5802 5797 5791 5786 5782 5776 5769 5760 5752 5742 5731 5720 5715 5710 5705 5700 5695 5689 5684 5680 5678 5676 5677 5675 5677 5677 5679 5682 5688 5696 5701 5707 5712 5715 5721 5729 5736 5740 5746
5808 5806 5805 5803 5802 5800 5796 5791 5786 5781 5775 5769 5759 5751 5742 5731 5722 5716 5712 5707 5703 5698 5693 5688 5683 5679 5677 5675 5676 5676 5678 5679 5679 5686 5692 5698 5705 5712 5715 5718 5724 5729 5734 5739
5804 5802 5802 5801 5800 5798 5794 5791 5786 5780 5775 5769 5760 5752 5743 5734 5724 5716 5714 5710 5705 5701 5697 5691 5686 5681 5677 5675 5676 5677 5678 5678 5679 5684 5689 5694 5701 5709 5713 5716 5719 5722 5728 5733
5800 5799 5799 5798 5797 5795 5792 5789 5785 5780 5773 5768 5762 5755 5745 5735 5725 5718 5714 5711 5707 5703 5699 5695 5690 5685 5680 5678 5678 5677 5678 5679 5680 5684 5689 5693 5699 5705 5708 5712 5712 5716 5721 5727
5797 5797 5794 5794 5794 5793 5790 5787 5783 5777 5773 5770 5764 5757 5751 5739 5728 5720 5714 5711 5709 5704 5701 5698 5694 5690 5686 5682 5681 5680 5679 5679 5680 5684 5688 5691 5696 5700 5704 5709 5710 5713 5717 5722
5793 5793 5791 5790 5791 5790 5787 5786 5783 5779 5775 5769 5763 5758 5752 5743 5734 5723 5716 5711 5708 5706 5702 5699 5696 5693 5690 5686 5681 5679 5679 5680 5681 5684 5685 5689 5694 5697 5701 5705 5707 5710 5714 5717
5789 5790 5788 5785 5788 5786 5785 5785 5782 5778 5772 5767 5763 5757 5753 5746 5739 5730 5720 5713 5708 5705 5703 5700 5697 5694 5691 5688 5686 5683 5681 5680 5682 5683 5684 5687 5689 5692 5697 5701 5705 5708 5711 5713
5783 5785 5785 5782 5783 5783 5783 5781 5779 5776 5771 5766 5762 5758 5753 5748 5741 5735 5727 5717 5711 5707 5704 5701 5697 5692 5689 5687 5686 5684 5683 5681 5680 5679 5682 5685 5686 5688 5693 5697 5701 5705 5708 5709
5778 5779 5779 5779 5778 5779 5779 5778 5777 5774 5772 5766 5762 5760 5754 5749 5745 5737 5732 5723 5714 5710 5706 5702 5698 5694 5688 5683 5681 5681 5682 5681 5678 5678 5680 5682 5684 5687 5690 5693 5696 5700 5701 5704
5772 5774 5774 5774 5776 5776 5776 5776 5775 5772 5769 5765 5760 5757 5754 5750 5747 5741 5735 5728 5720 5711 5707 5703 5700 5695 5689 5684 5678 5675 5674 5674 5676 5678 5680 5680 5683 5685 5688 5690 5693 5695 5698 5700
5767 5769 5769 5770 5771 5772 5773 5773 5772 5769 5767 5764 5760 5756 5753 5750 5746 5743 5738 5732 5726 5718 5710 5703 5698 5696 5691 5685 5679 5673 5673 5677 5680 5682 5682 5682 5682 5683 5685 5687 5690 5692 5693 5694
5760 5763 5763 5764 5765 5766 5768 5769 5768 5767 5764 5762 5759 5755 5751 5748 5746 5743 5740 5735 5729 5723 5716 5709 5704 5697 5692 5687 5682 5675 5672 5675 5679 5681 5682 5683 5683 5685 5684 5686 5687 5688 5688 5690
5753 5756 5757 5758 5759 5761 5763 5764 5764 5764 5762 5760 5757 5753 5750 5747 5744 5742 5740 5736 5732 5726 5720 5715 5708 5702 5697 5691 5686 5681 5678 5677 5680 5682 5684 5685 5686 5686 5686 5686 5685 5687 5687 5687
5747 5748 5750 5754 5753 5755 5760 5758 5759 5760 5759 5758 5754 5752 5749 5746 5742 5740 5738 5736 5732 5728 5723 5719 5714 5709 5702 5696 5691 5687 5684 5682 5683 5684 5686 5687 5687 5686 5686 5686 5685 5686 5688 5687
5740 5741 5742 5746 5747 5749 5753 5753 5754 5754 5754 5754 5751 5748 5746 5743 5740 5737 5736 5735 5732 5728 5724 5721 5717 5713 5708 5702 5697 5694 5690 5688 5686 5686 5686 5687 5687 5686 5686 5685 5685 5686 5686 5685
5732 5733 5735 5735 5739 5742 5746 5747 5747 5748 5749 5749 5747 5745 5743 5740 5738 5735 5733 5732 5730 5727 5724 5721 5718 5715 5711 5706 5700 5697 5694 5692 5691 5689 5687 5686 5686 5686 5685 5684 5682 5681 5681 5681
5724 5725 5727 5729 5731 5732 5739 5740 5739 5740 5744 5742 5742 5740 5739 5737 5735 5732 5730 5729 5727 5724 5721 5720 5718 5716 5714 5710 5705 5699 5696 5694 5693 5692 5690 5688 5686 5684 5682 5681 5680 5680 5680 5681
5715 5716 5717 5719 5720 5724 5730 5733 5732 5736 5738 5736 5736 5735 5734 5733 5731 5728 5726 5725 5724 5721 5718 5717 5716 5715 5712 5712 5709 5704 5700 5696 5693 5692 5692 5691 5690 5688 5686 5684 5682 5682 5681 5680
5705 5707 5709 5710 5712 5718 5719 5723 5726 5727 5727 5728 5729 5729 5728 5728 5726 5723 5721 5721 5720 5718 5715 5714 5712 5712 5712 5711 5709 5706 5703 5699 5696 5694 5691 5691 5690 5691 5689 5687 5686 5684 5684 5683
5693 5700 5701 5702 5706 5707 5710 5714 5716 5718 5718 5719 5721 5721 5721 5722 5721 5719 5717 5716 5715 5713 5710 5709 5708 5707 5707 5706 5706 5705 5704 5702 5699 5696 5694 5692 5691 5690 5690 5690 5688 5687 5686 5685
5682 5687 5690 5692 5699 5700 5702 5705 5707 5707 5706 5710 5713 5713 5714 5715 5714 5713 5711 5711 5710 5708 5706 5703 5701 5701 5701 5700 5699 5700 5700 5698 5697 5696 5694 5693 5692 5691 5691 5689 5688 5688 5687 5685
5672 5675 5680 5683 5691 5690 5692 5693 5695 5695 5696 5702 5704 5705 5706 5706 5706 5707 5706 5705 5704 5702 5700 5698 5697 5696 5696 5695 5692 5692 5693 5694 5693 5692 5691 5691 5689 5688 5687 5687 5687 5686 5686 5685
5661 5666 5671 5676 5678 5677 5685 5682 5685 5687 5690 5692 5693 5695 5696 5698 5697 5699 5699 5699 5698 5696 5694 5694 5692 5689 5687 5687 5686 5684 5685 5686 5687 5687 5687 5686 5684 5683 5682 5682 5682 5681 5681 5682
Wind_Speed
15 13 13 15 18 18 17 19 22 27 30 35 40 44 49 43 25 26 25 26 23 19 20 19 16 9 9 10 12 12 9 13 22 29 28 36 33 41 41 40 40 37 36 37
14 13 12 14 16 17 18 19 22 25 29 34 38 42 49 48 32 24 24 24 25 21 20 18 12 9 9 12 13 15 8 11 19 33 20 22 15 35 41 46 45 38 35 33
13 10 12 16 18 17 18 20 21 24 28 33 38 43 48 49 34 26 25 23 24 24 20 18 15 10 10 10 11 16 3 13 19 37 26 22 19 18 34 42 39 35 34 33
11 11 13 19 19 17 18 20 22 25 28 31 37 43 47 51 38 27 26 26 26 27 25 22 17 13 10 8 12 15 4 11 22 28 26 19 11 6 18 31 38 34 32 34
10 10 16 17 17 18 18 20 21 23 26 30 34 40 45 49 40 25 25 27 28 29 28 28 26 20 11 10 13 16 8 14 17 34 30 28 22 8 7 18 33 42 32 28
10 11 15 17 19 17 17 18 18 20 25 30 32 36 41 46 45 27 21 24 25 28 31 33 34 28 18 8 11 16 13 14 18 19 16 17 10 12 11 11 12 25 35 30
11 8 15 18 20 16 19 17 18 20 25 29 31 35 38 40 44 34 21 18 22 24 26 29 32 36 26 13 6 13 16 16 19 15 18 15 14 12 11 10 6 13 24 32
14 10 9 16 18 16 19 20 21 22 23 24 29 33 36 37 39 38 29 17 16 20 23 25 26 28 31 25 9 7 15 17 20 22 18 17 16 17 14 13 9 14 21 28
18 13 10 13 18 15 14 20 18 16 16 19 25 28 33 36 36 38 37 31 16 13 19 22 25 25 24 25 22 9 6 10 15 26 28 24 20 15 16 16 14 12 11 22
17 16 12 13 17 16 19 18 17 16 19 20 19 24 30 32 34 36 36 35 30 19 16 20 23 22 22 20 19 18 7 3 7 13 22 28 27 24 19 16 16 17 15 12
18 17 15 12 16 17 19 22 18 17 18 19 19 22 25 29 30 32 33 33 34 33 28 25 25 23 19 14 13 12 13 6 3 5 8 18 27 28 28 27 23 22 24 21
20 17 16 11 14 18 19 21 19 18 16 16 16 16 22 25 29 29 31 30 30 31 33 32 32 30 23 18 11 8 7 8 7 3 6 9 13 19 24 28 30 33 31 30
22 19 16 13 14 17 19 21 20 18 18 16 17 15 17 21 25 28 27 29 28 28 30 32 35 37 31 25 18 9 5 6 7 7 3 4 9 12 14 16 18 21 24 27
22 21 19 17 16 20 21 23 20 19 18 15 16 16 14 16 20 24 26 26 27 28 28 29 33 37 39 31 29 19 4 3 1 6 7 3 2 4 7 10 15 18 20 21
24 22 22 19 19 20 21 23 20 19 20 18 16 15 15 14 17 19 23 25 24 26 27 29 32 34 39 36 33 31 13 3 3 3 7 11 7 3 2 5 7 10 12 16
29 23 24 20 22 20 20 23 23 18 19 18 18 15 14 13 14 17 18 21 23 24 25 26 28 31 35 38 32 29 22 11 4 4 5 7 7 8 7 7 6 8 9 10
34 27 26 22 24 25 20 23 27 24 22 20 19 17 15 14 14 15 17 18 20 22 23 25 26 28 29 32 35 28 24 20 12 8 7 5 5 7 7 7 6 7 7 7
34 33 31 24 27 27 21 22 25 25 24 22 22 19 17 15 15 16 18 18 18 20 21 21 23 25 26 27 30 32 25 19 15 11 9 8 9 9 10 11 12 11 10 10
35 36 36 36 28 28 23 21 22 23 24 24 23 21 19 19 16 17 18 18 18 18 20 20 21 21 22 23 24 25 27 25 21 17 14 11 10 10 10 10 11 10 10 10
35 35 37 35 35 38 25 22 26 25 21 24 23 22 21 22 20 20 21 20 19 17 17 19 19 21 20 20 21 20 20 21 22 20 16 14 14 13 13 12 10 8 7 6
36 37 36 36 37 38 26 25 27 25 25 26 26 27 24 21 22 22 23 22 20 18 17 18 17 18 19 19 19 18 17 17 16 16 14 14 13 14 15 17 17 14 10 6
37 37 37 37 37 33 28 25 27 26 22 24 25 27 28 26 24 23 23 23 21 19 17 18 19 18 18 20 19 18 17 15 13 12 10 9 9 10 9 10 11 13 13 12
43 37 40 40 34 35 34 29 27 28 29 26 26 27 29 29 27 25 25 24 23 20 17 17 18 17 17 18 19 19 17 17 17 14 10 6 7 7 8 9 7 5 5 5
41 38 41 42 34 32 34 34 26 31 31 28 27 27 28 28 29 26 25 24 23 22 19 20 20 20 16 17 18 19 18 19 18 15 15 13 10 8 9 9 9 11 6 2
44 42 41 42 38 34 33 35 36 39 37 32 30 27 26 27 29 29 27 26 24 23 22 21 22 23 23 20 20 17 19 20 20 21 19 18 16 18 16 15 16 16 16 15
45 43 40 39 38 42 34 39 41 40 34 35 36 32 30 28 29 28 29 29 28 27 26 25 24 22 26 25 24 24 19 20 22 22 24 27 25 23 22 24 23 22 22 23
Wind_Direction
314 319 310 323 336 337 360 12 7 6 5 9 8 6 6 4 349 346 348 353 348 336 332 348 331 283 248 273 212 198 198 230 229 222 222 202 205 209 212 218 218 221 226 236
311 313 305 323 327 336 358 9 7 2 4 9 8 8 9 8 359 353 351 354 358 351 345 344 337 311 281 274 215 217 199 192 218 205 208 192 180 219 215 221 221 219 226 233
308 300 302 310 325 333 349 356 4 0 2 8 9 9 11 10 6 5 2 2 8 5 356 349 347 332 322 262 219 205 236 171 188 196 181 174 194 206 216 208 219 219 221 230
300 298 301 314 323 330 343 352 358 360 0 7 12 11 12 10 14 16 19 20 20 19 16 8 353 344 343 277 241 181 175 174 172 180 162 157 136 128 199 206 213 220 219 235
293 308 307 311 315 322 333 341 353 357 0 8 13 14 13 12 17 16 20 21 29 30 28 26 20 9 342 337 251 186 168 176 163 191 192 210 235 227 189 196 215 219 218 220
300 306 300 301 311 320 328 342 353 356 359 5 9 14 17 15 18 19 18 21 27 31 29 26 23 16 6 355 253 197 185 191 166 192 207 232 197 221 230 214 203 219 218 225
285 297 287 291 308 311 321 333 346 4 4 2 5 11 14 18 21 22 20 18 21 25 25 23 23 26 23 22 329 246 215 183 162 157 177 170 187 209 228 232 205 214 219 218
282 289 284 276 292 307 314 322 340 352 358 358 3 7 11 16 24 25 22 23 14 15 16 17 17 23 27 27 25 321 271 225 191 171 178 170 174 190 192 210 210 205 211 215
280 281 279 265 284 301 304 314 324 342 350 7 5 4 12 15 21 30 29 26 25 3 360 3 2 6 14 20 26 12 333 291 248 200 187 182 186 184 190 195 183 177 200 220
277 274 274 258 273 287 299 307 318 331 340 0 3 7 9 13 15 26 35 38 34 27 358 352 359 4 3 5 19 29 15 294 275 267 223 202 192 193 195 199 204 200 198 198
274 267 268 259 260 272 288 301 311 321 326 341 0 4 5 8 16 17 29 40 42 40 30 18 7 2 359 4 359 12 32 20 314 271 260 246 223 207 205 209 210 217 220 217
268 264 270 270 262 267 282 301 308 314 318 329 343 0 1 4 8 17 17 31 40 39 36 26 17 12 6 356 331 337 337 16 23 306 270 257 254 254 243 234 225 225 227 226
265 264 264 267 258 259 276 289 304 309 313 322 329 347 355 359 3 6 13 19 30 40 37 32 27 20 14 11 0 321 301 328 21 21 315 258 254 253 249 248 250 254 254 250
263 264 262 263 263 265 274 279 297 304 306 314 316 328 347 351 357 359 3 12 16 26 33 34 32 26 22 17 16 12 277 202 241 14 16 343 284 247 258 257 256 254 251 250
261 263 267 262 263 263 266 276 286 294 302 315 316 323 330 337 346 354 353 3 10 17 22 28 32 31 28 24 23 33 50 162 133 45 32 35 21 332 310 261 257 258 256 255
258 259 264 267 265 262 266 269 275 281 301 318 319 321 322 325 337 344 345 351 359 9 14 18 26 32 32 31 29 35 44 54 37 60 34 6 9 20 16 0 324 288 271 265
252 262 260 261 263 262 263 271 270 278 285 300 317 319 321 317 330 335 334 339 345 356 5 11 17 21 34 35 35 36 44 52 60 35 7 333 326 323 326 331 316 300 291 283
252 256 261 263 261 262 261 266 266 275 284 289 298 312 316 323 323 325 327 329 334 340 349 360 10 12 17 33 38 38 44 49 54 55 41 16 351 326 308 298 290 288 283 281
254 254 257 259 262 264 263 264 263 263 272 277 284 298 304 317 323 318 316 320 323 329 335 343 354 4 11 18 33 38 41 45 52 51 48 40 26 9 351 331 316 320 316 302
252 256 257 258 255 251 261 260 267 262 262 267 272 285 296 304 315 318 315 310 310 317 321 331 340 345 353 6 15 29 36 38 36 38 44 44 39 34 18 358 331 300 286 268
249 253 258 259 259 253 262 256 258 267 262 262 269 278 287 296 305 313 316 312 307 305 310 313 324 334 339 346 354 7 16 26 33 35 31 33 37 49 55 58 60 61 68 74
247 250 252 257 261 263 260 255 257 262 268 261 260 266 276 286 297 303 311 314 309 304 305 307 307 316 326 332 338 343 349 360 10 15 24 28 25 12 30 46 53 62 67 70
245 248 248 251 253 256 257 253 247 260 261 261 261 262 267 276 287 294 304 311 312 302 294 292 296 301 307 315 319 324 327 330 341 346 347 352 6 19 9 360 7 19 39 53
240 242 244 248 248 251 254 256 249 248 256 263 265 264 265 270 279 285 292 301 309 311 309 294 285 286 292 300 306 312 311 309 315 312 323 323 312 317 327 329 330 328 323 307
239 238 242 246 246 248 249 248 246 246 247 252 263 265 267 267 273 278 283 290 301 307 308 302 297 295 291 287 286 289 294 300 296 296 296 295 305 298 292 297 304 305 298 293
242 245 247 250 243 248 247 250 249 251 250 254 260 263 263 266 269 274 275 282 287 295 306 309 306 300 294 288 280 280 283 291 298 298 294 295 289 279 284 287 286 288 288 286